sat.trackr.live / text

‹ back to catalog

STARLINK-4602

NORAD 53629 · 2022-104AT

PAYLOAD ACTIVE UNKNOWN

§ Identity

Operator
Country
US
Launch date
2022-08-28
Launch site
AFETR
Launch vehicle
Mass (kg)
RCS (m²)

Purposes: comms

External: N2YO · Heavens-Above · Gunter

§ Orbital elements

Epoch: 2026-05-25T00:36:44.267904Z

Period
95.44 min
Inclination
53.2178°
Eccentricity
0.0000609
Mean motion
15.08840022 rev/d
Perigee alt
539.3 km
Apogee alt
540.2 km
Semi-major
6,917.9 km
B*
5.9655e-5
RAAN
251.1111°
Arg perigee
232.7288°
Mean anomaly
127.3648°
Rev number
20,728

§ Raw data

STARLINK-46021 53629U 22104AT  26145.02551236  .00000662  00000+0  59655-4 0  99932 53629  53.2178 251.1111 0000609 232.7288 127.3648 15.08840022207282

JSON: /api/v1/satellites/53629 · /tle

For live sub-satellite position, see the globe view (requires WebGL).

§ Visibility from observer

Set your observer location to see the next 7 days of passes ≥ 10°. The values pass through the URL so the page stays shareable.

No JS? Fill the form by hand. The geolocation button needs JavaScript.